Volver al catálogo

PHOBOS

ActivoCienciaSSO
NORAD 68467·PAYLOAD·🇳🇴 Norway

Lanzado Mar 30, 2026 desde Vandenberg Space Force Base

Loading…

Próximos Pases (próximas 24 horas)

TLE

ActualizadoSource: Space-Track

Época: Sep 14, 2026, 03:17 UTC

1 68467U 26067BD  26257.13724008  .00015642  00000-0  69503-3 0  9993
2 68467  97.4495 214.3180 0008143 115.0563 245.1520 15.21585585 25457

Sigue PHOBOS en tiempo real con AllMySat

Download on the App Store